Weather History for KBIX - March, 2011

Change the Weather History Date:

Tuesday, March 22, 2011

  Actual Average Record
Temperature  
Mean Temperature 72 °F -  
Max Temperature 77 °F 69 °F 79 °F (1948)
Min Temperature 67 °F 49 °F 31 °F (1986)
Cooling Degree Days 7    
Growing Degree Days 22 (Base 50)    
Moisture  
Dew Point 69 °F    
Average Humidity 94    
Maximum Humidity 100    
Minimum Humidity 70    
Precipitation  
Precipitation 0.00 in - - ()
Sea Level Pressure  
Sea Level Pressure 30.13 in    
Wind  
Wind Speed 10 mph (SSW)    
Max Wind Speed 14 mph    
Max Gust Speed -    
Visibility 10 miles    
Events      
Averages and records for this station are not official NWS values.
T = Trace of Precipitation, MM = Missing Value Source: NWS Daily Summary

Daily Weather History Graph

Daily Weather History Graph

Search for Another Location

Airport or City:

Trip Planner

Search our weather history database for the weather conditions in past years. The results will help you decide how hot, cold, wet, or windy it might be!

Date:

Astronomy

Mar. 22, 2011 Rise Set
Actual Time 6:57 AM CDT 7:08 PM CDT
Civil Twilight 6:33 AM CDT 7:32 PM CDT
Nautical Twilight 6:05 AM CDT 8:00 PM CDT
Astronomical Twilight 5:37 AM CDT 8:28 PM CDT
Moon 10:52 PM CDT (3/22) 8:40 AM CDT (3/22)
Length of Visible Light 12h 58m
Length of Day
12h 10m
Waning Gibbous, 87% of the Moon is Illuminated
Mar 22
Waning Gibbous
Mar 26
Last Quarter
Apr 3
New
Apr 11
First Quarter
Apr 17
Full

Hourly Weather History & Observations

Time (CDT) Temp. Dew Point Humidity Pressure Visibility Wind Dir Wind Speed Gust Speed Precip Events Conditions
12:05 AM 69.8 °F 69.8 °F 100% 30.22 in 10.0 mi South 10.4 mph - N/A   Overcast
12:15 AM 69.8 °F 69.8 °F 100% 30.22 in 10.0 mi South 10.4 mph - N/A   Overcast
12:40 AM 69.8 °F 69.8 °F 100% 30.21 in 10.0 mi SSW 10.4 mph - N/A   Scattered Clouds
12:41 AM 69.8 °F 69.8 °F 100% 30.21 in 10.0 mi SSW 10.4 mph - N/A   Mostly Cloudy
12:43 AM 69.8 °F 69.8 °F 100% 30.21 in 10.0 mi SSW 9.2 mph - N/A   Mostly Cloudy
12:55 AM 69.8 °F 69.8 °F 100% 30.20 in 10.0 mi SSW 10.4 mph - N/A   Mostly Cloudy
1:00 AM 69.8 °F 69.8 °F 100% 30.20 in 10.0 mi South 9.2 mph - N/A   Mostly Cloudy
1:55 AM 69.8 °F 69.8 °F 100% 30.19 in 10.0 mi SSW 10.4 mph - N/A   Overcast
2:08 AM 69.8 °F 69.8 °F 100% 30.18 in 10.0 mi South 9.2 mph - N/A   Overcast
2:24 AM 69.8 °F 69.8 °F 100% 30.18 in 10.0 mi SSW 10.4 mph - N/A   Mostly Cloudy
2:32 AM 69.8 °F 69.8 °F 100% 30.17 in 10.0 mi SSW 9.2 mph - N/A   Mostly Cloudy
2:36 AM 69.8 °F 69.8 °F 100% 30.17 in 10.0 mi SSW 10.4 mph - N/A   Mostly Cloudy
2:37 AM 69.8 °F 69.8 °F 100% 30.17 in 10.0 mi SSW 9.2 mph - N/A   Mostly Cloudy
2:40 AM 69.8 °F 69.8 °F 100% 30.17 in 10.0 mi SSW 9.2 mph - N/A   Mostly Cloudy
2:42 AM 69.8 °F 69.8 °F 100% 30.17 in 10.0 mi SSW 9.2 mph - N/A   Mostly Cloudy
2:44 AM 69.8 °F 69.8 °F 100% 30.17 in 10.0 mi SSW 9.2 mph - N/A   Mostly Cloudy
2:54 AM 69.8 °F 69.8 °F 100% 30.17 in 10.0 mi SSW 5.8 mph - N/A   Mostly Cloudy
2:55 AM 69.8 °F 69.8 °F 100% 30.17 in 10.0 mi SSW 5.8 mph - N/A   Mostly Cloudy
3:00 AM 69.8 °F 69.8 °F 100% 30.17 in 10.0 mi SW 9.2 mph - N/A   Mostly Cloudy
3:02 AM 69.8 °F 69.8 °F 100% 30.16 in 10.0 mi SSW 9.2 mph - N/A   Mostly Cloudy
3:27 AM 69.8 °F 69.8 °F 100% 30.15 in 10.0 mi SSW 8.1 mph - N/A   Mostly Cloudy
3:55 AM 69.3 °F 69.3 °F 100% 30.14 in 10.0 mi SSW 6.9 mph - N/A   Mostly Cloudy
4:07 AM 69.8 °F 69.8 °F 100% 30.14 in 10.0 mi SW 6.9 mph - N/A   Mostly Cloudy
4:17 AM 69.8 °F 69.8 °F 100% 30.14 in 10.0 mi SSW 6.9 mph - N/A   Mostly Cloudy
4:20 AM 69.8 °F 69.8 °F 100% 30.14 in 10.0 mi SSW 6.9 mph - N/A   Scattered Clouds
4:55 AM 68.7 °F 68.7 °F 100% 30.13 in 10.0 mi SSW 6.9 mph - N/A   Mostly Cloudy
5:20 AM 69.8 °F 68.0 °F 94% 30.13 in 10.0 mi SW 5.8 mph - N/A   Overcast
5:30 AM 68.0 °F 68.0 °F 100% 30.13 in 10.0 mi SW 8.1 mph - N/A   Mostly Cloudy
5:46 AM 68.0 °F 68.0 °F 100% 30.13 in 10.0 mi SSW 6.9 mph - N/A   Scattered Clouds
5:55 AM 68.5 °F 67.8 °F 98% 30.13 in 10.0 mi SSW 8.1 mph - N/A   Scattered Clouds
6:55 AM 67.3 °F 67.3 °F 100% 30.14 in 10.0 mi SSW 5.8 mph - N/A   Scattered Clouds
6:59 AM 68.0 °F 68.0 °F 100% 30.14 in 10.0 mi SSW 5.8 mph - N/A   Mostly Cloudy
7:07 AM 68.0 °F 68.0 °F 100% 30.14 in 10.0 mi SSW 6.9 mph - N/A   Scattered Clouds
7:10 AM 68.0 °F 68.0 °F 100% 30.14 in 10.0 mi SSW 6.9 mph - N/A   Mostly Cloudy
7:40 AM 69.8 °F 69.8 °F 100% 30.15 in 10.0 mi South 8.1 mph - N/A   Mostly Cloudy
7:41 AM 69.8 °F 69.8 °F 100% 30.15 in 10.0 mi SSW 8.1 mph - N/A   Mostly Cloudy
7:43 AM 69.8 °F 69.8 °F 100% 30.14 in 10.0 mi SSW 9.2 mph - N/A   Mostly Cloudy
7:46 AM 69.8 °F 69.8 °F 100% 30.14 in 10.0 mi SSW 9.2 mph - N/A   Mostly Cloudy
7:47 AM 69.8 °F 68.0 °F 94% 30.14 in 10.0 mi SSW 9.2 mph - N/A   Overcast
7:55 AM 70.2 °F 68.9 °F 96% 30.15 in 10.0 mi SSW 8.1 mph - N/A   Overcast
8:30 AM 71.6 °F 69.8 °F 94% 30.15 in 10.0 mi South 10.4 mph - N/A   Mostly Cloudy
8:44 AM 71.6 °F 69.8 °F 94% 30.15 in 10.0 mi South 8.1 mph - N/A   Mostly Cloudy
8:55 AM 71.6 °F 69.3 °F 92% 30.15 in 10.0 mi South 10.4 mph - N/A   Overcast
9:19 AM 73.4 °F 69.8 °F 88% 30.15 in 10.0 mi South 11.5 mph - N/A   Overcast
9:22 AM 73.4 °F 68.0 °F 83% 30.15 in 10.0 mi South 10.4 mph - N/A   Overcast
9:30 AM 73.4 °F 68.0 °F 83% 30.16 in 10.0 mi South 8.1 mph - N/A   Overcast
9:41 AM 73.4 °F 69.8 °F 88% 30.16 in 10.0 mi South 9.2 mph - N/A   Overcast
9:42 AM 73.4 °F 69.8 °F 88% 30.16 in 10.0 mi South 10.4 mph - N/A   Overcast
9:55 AM 73.8 °F 69.3 °F 86% 30.16 in 10.0 mi South 10.4 mph - N/A   Mostly Cloudy
9:57 AM 73.4 °F 69.8 °F 88% 30.16 in 10.0 mi South 11.5 mph - N/A   Mostly Cloudy
10:03 AM 73.4 °F 69.8 °F 88% 30.16 in 10.0 mi South 10.4 mph - N/A   Mostly Cloudy
10:05 AM 75.2 °F 69.8 °F 83% 30.16 in 10.0 mi South 11.5 mph - N/A   Scattered Clouds
10:55 AM 75.7 °F 69.4 °F 81% 30.16 in 10.0 mi South 11.5 mph - N/A   Partly Cloudy
11:55 AM 76.8 °F 67.6 °F 73% 30.15 in 10.0 mi South 10.4 mph - N/A   Mostly Cloudy
12:55 PM 76.8 °F 66.6 °F 70% 30.13 in 10.0 mi South 10.4 mph - N/A   Scattered Clouds
1:55 PM 76.5 °F 67.3 °F 73% 30.10 in 10.0 mi SSE 11.5 mph - N/A   Partly Cloudy
2:55 PM 77.2 °F 68.9 °F 76% 30.07 in 10.0 mi SSE 13.8 mph - N/A   Clear
3:54 PM 75.2 °F 69.8 °F 83% 30.06 in 10.0 mi South 11.5 mph - N/A   Mostly Cloudy
3:55 PM 74.5 °F 69.8 °F 85% 30.06 in 10.0 mi South 13.8 mph - N/A   Mostly Cloudy
4:00 PM 75.2 °F 69.8 °F 83% 30.05 in 10.0 mi South 13.8 mph - N/A   Mostly Cloudy
4:07 PM 75.2 °F 69.8 °F 83% 30.05 in 10.0 mi South 13.8 mph - N/A   Mostly Cloudy
4:38 PM 75.2 °F 69.8 °F 83% 30.04 in 10.0 mi South 11.5 mph - N/A   Scattered Clouds
4:55 PM 75.2 °F 70.7 °F 86% 30.04 in 10.0 mi South 11.5 mph - N/A   Partly Cloudy
5:02 PM 75.2 °F 71.6 °F 89% 30.04 in 10.0 mi South 12.7 mph - N/A   Partly Cloudy
5:55 PM 74.7 °F 69.6 °F 84% 30.03 in 10.0 mi South 12.7 mph - N/A   Clear
6:55 PM 72.9 °F 70.0 °F 91% 30.02 in 10.0 mi South 12.7 mph - N/A   Clear
7:55 PM 72.3 °F 69.8 °F 92% 30.02 in 10.0 mi South 10.4 mph - N/A   Clear
8:55 PM 71.8 °F 70.2 °F 95% 30.03 in 10.0 mi SSW 12.7 mph - N/A   Clear
9:55 PM 71.4 °F 69.8 °F 95% 30.02 in 10.0 mi SSW 11.5 mph - N/A   Clear
10:55 PM 71.1 °F 70.0 °F 96% 30.01 in 10.0 mi SSW 11.5 mph - N/A   Clear
11:55 PM 70.7 °F 69.8 °F 97% 30.00 in 10.0 mi SSW 13.8 mph - N/A   Clear